Weather History for La Crosse, WI

Change the Weather History Date:

Friday, May 10, 2013

  Actual Average Record
Temperature  
Mean Temperature 54 °F 58 °F  
Max Temperature 65 °F 69 °F 90 °F (1911)
Min Temperature 43 °F 47 °F 27 °F (1966)
Degree Days  
Heating Degree Days 11 8  
Month to date heating degree days 122 90  
Since 1 July heating degree days 7316 7042  
Cooling Degree Days 0 1  
Month to date cooling degree days 0 8  
Year to date cooling degree days 4 15  
Growing Degree Days 3 (Base 50)    
Moisture  
Dew Point 42 °F    
Average Humidity 65    
Maximum Humidity 89    
Minimum Humidity 40    
Precipitation  
Precipitation T in 0.11 in 1.02 in (1892)
Month to date precipitation 1.83 1.13  
Year to date precipitation 12.27 8.68  
Snow  
Snow 0.00 in 0.00 in 0.00 in (2002)
Month to date snowfall 0.8 0.1  
Since 1 July snowfall 60.6 43.4  
Snow Depth 0.00 in    
Sea Level Pressure  
Sea Level Pressure 30.00 in    
Wind  
Wind Speed 7 mph (NW)    
Max Wind Speed 16 mph    
Max Gust Speed 24 mph    
Visibility 10 miles    
Events Rain    
T = Trace of Precipitation, MM = Missing Value Source: NWS Daily Summary

Daily Weather History Graph

Daily Weather History Graph

Search for Another Location

Airport:

Trip Planner

Search our weather history database for the weather conditions in past years. The results will help you decide how hot, cold, wet, or windy it might be!

Date:

Astronomy

May. 10, 2013 Rise Set
Actual Time 5:44 AM CDT 8:18 PM CDT
Civil Twilight 5:12 AM CDT 8:51 PM CDT
Nautical Twilight 4:31 AM CDT 9:32 PM CDT
Astronomical Twilight 3:44 AM CDT 10:19 PM CDT
Moon 6:08 AM CDT (5/10) 9:09 PM CDT (5/10)
Length of Visible Light 15h 39m
Length of Day
14h 34m
New Moon, 0% of the Moon is Illuminated
May 10
New Moon
May 17
First Quarter
May 24
Full
May 31
Last Quarter
Jun 8
New

Hourly Weather History & Observations

Time (CDT) Temp. Windchill Dew Point Humidity Pressure Visibility Wind Dir Wind Speed Gust Speed Precip Events Conditions
12:53 AM 50.0 °F - 46.0 °F 86% 29.98 in 10.0 mi North 11.5 mph - N/A   Overcast
1:53 AM 48.0 °F - 44.1 °F 86% 29.99 in 10.0 mi North 10.4 mph 17.3 mph N/A   Overcast
2:53 AM 46.0 °F 40.2 °F 43.0 °F 89% 30.00 in 8.0 mi North 12.7 mph 17.3 mph 0.00 in   Overcast
3:53 AM 45.0 °F 39.3 °F 41.0 °F 86% 30.01 in 10.0 mi North 11.5 mph - 0.00 in Rain Light Rain
4:53 AM 44.1 °F 38.6 °F 39.9 °F 85% 30.01 in 10.0 mi North 10.4 mph - 0.00 in   Overcast
5:53 AM 43.0 °F 36.8 °F 39.0 °F 86% 30.02 in 10.0 mi North 11.5 mph - 0.00 in   Overcast
6:03 AM 42.8 °F 36.2 °F 37.4 °F 81% 30.02 in 10.0 mi North 12.7 mph - N/A   Overcast
6:53 AM 44.1 °F 39.0 °F 37.9 °F 79% 30.04 in 10.0 mi North 9.2 mph - N/A   Overcast
7:53 AM 44.1 °F 39.5 °F 37.9 °F 79% 30.04 in 10.0 mi North 8.1 mph - N/A   Overcast
8:53 AM 46.0 °F 40.6 °F 37.9 °F 73% 30.05 in 10.0 mi North 11.5 mph - N/A   Overcast
9:53 AM 46.9 °F - 37.9 °F 71% 30.04 in 10.0 mi North 4.6 mph - N/A   Overcast
10:30 AM 48.2 °F - 39.2 °F 71% 30.04 in 10.0 mi NNE 8.1 mph - N/A   Overcast
10:53 AM 50.0 °F - 39.9 °F 68% 30.04 in 10.0 mi North 6.9 mph - N/A   Overcast
11:53 AM 53.1 °F - 41.0 °F 64% 30.03 in 10.0 mi West 9.2 mph - N/A   Partly Cloudy
12:37 PM 53.6 °F - 42.8 °F 67% 30.02 in 10.0 mi West 9.2 mph - N/A   Mostly Cloudy
12:50 PM 55.4 °F - 42.8 °F 63% 30.02 in 10.0 mi West 10.4 mph - N/A   Mostly Cloudy
12:53 PM 55.9 °F - 43.0 °F 62% 30.03 in 10.0 mi WNW 10.4 mph - N/A   Overcast
1:53 PM 59.0 °F - 44.1 °F 58% 30.01 in 10.0 mi WNW 8.1 mph - N/A   Overcast
2:53 PM 60.1 °F - 45.0 °F 57% 30.01 in 10.0 mi WNW 8.1 mph - N/A   Partly Cloudy
3:53 PM 63.0 °F - 46.0 °F 54% 29.98 in 10.0 mi West 5.8 mph - N/A   Partly Cloudy
4:53 PM 64.0 °F - 46.0 °F 52% 29.96 in 10.0 mi WNW 8.1 mph - N/A   Clear
5:53 PM 64.0 °F - 44.1 °F 48% 29.95 in 10.0 mi West 5.8 mph - N/A   Clear
6:53 PM 64.0 °F - 39.9 °F 41% 29.94 in 10.0 mi Calm Calm - N/A   Clear
7:53 PM 61.0 °F - 43.0 °F 52% 29.93 in 10.0 mi Calm Calm - N/A   Clear
8:53 PM 57.0 °F - 43.0 °F 59% 29.94 in 10.0 mi SW 3.5 mph - N/A   Clear
9:53 PM 55.0 °F - 44.1 °F 67% 29.94 in 10.0 mi SSE 4.6 mph - N/A   Clear
10:53 PM 52.0 °F - 46.0 °F 80% 29.94 in 10.0 mi SSW 5.8 mph - N/A   Clear
11:53 PM 54.0 °F - 48.0 °F 80% 29.92 in 10.0 mi South 8.1 mph - N/A   Clear